Weather in Sidmouth

United Kingdom     50°41′30″N   3°14′36″W
temp.,
°C
wind,
m/s
gust,
m/s
humid.,
%
clouds,
%
prec.,
mm/h
press.,
hPa
HPBL,
m
9 may, sun
sun901:00+12s91695100 0.4 997780
04:00+11ssw81597100 0.7 996831
07:00+10ssw51194100 0.8 996484
10:00+12ssw61184100 0.0 996853
13:00+14ssw71275100 0.0 9961118
16:00+12ssw61276100 0.0 995997
19:00+11ssw51084100 0.0 995715
22:00+9ssw51196100 0.0 995525
10 may, mon
mon1001:00+10ssw7118892 0.3 995764
04:00+10ssw7128990 0.4 994821
07:00+9ssw8129064 0.8 996891
10:00+11ssw9148762 0.6 9981205
13:00+12ssw10147771 1.3 9991525
16:00+12ssw10137316 0.4 10011496
19:00+10sw710790 0.5 10031002
22:00+6ssw359449 0.0 1005138
11 may, tue
tue1101:00+7s239478 0.0 100591
04:00+7sse3594100 0.1 1005161
07:00+9s488999 0.3 1005482
10:00+11sse68765 0.1 1005924
13:00+11sse9127685 0.4 10041338
16:00+11s9128754 1.3 10021143
19:00+10sw8118552 1.7 1004806
22:00+10sw7129272 0.3 1006700
12 may, wed
wed1201:00+9sw71084100 0.3 1007713
04:00+9sw6979100 0.0 1007780
07:00+9sw4885100 0.1 1008578
10:00+11sw787637 0.1 10091130
13:00+13ssw78655 0.2 10101378
16:00+13ssw676355 0.0 10101376
19:00+11sw5774100 0.0 1010440
22:00+6sw2288100 0.0 101143
13 may, thu
thu1301:00+6sw118772 0.0 101127
04:00+4sse01874 0.0 101125
07:00+7ne11870 0.0 101043
10:00+11se32723 0.0 1010896
13:00+12sse426846 0.1 10101177
16:00+12sse326933 0.1 1010855
19:00+11s227636 0.4 1010363
22:00+7nnw008942 0.0 101115